User: anonymous   Login
Location: Unspecified
(0.0000°N, 0.0000°E)
Time: 22:09:27
(UTC+00:00)
Language:

GEOEYE 1 - Orbit

View from above orbital plane
View from above orbital plane
View from above satellite
View from above satellite

Ground track
Ground track

The orbit data is extracted from the following two-line orbital elements,

1 33331U 08042A   15142.51450805  .00000558  00000-0  11414-3 0  9990
2 33331 098.1069 217.9692 0010870 118.0112 242.2191 14.64548955358372
Epoch (UTC): 22 May 2015 12:20:53
Eccentricity: 0.0010870
inclination: 98.1069°
perigee height: 671 km
apogee height: 686 km
right ascension of ascending node: 217.9692°
argument of perigee: 118.0112°
revolutions per day: 14.64548955
mean anomaly at epoch: 242.2191°
orbit number at epoch: 35837

The dashed part of the orbit path shows where the satellite is in the earth's shadow,  

DLR